テンペル第1彗星

9P/Tempel 1 (2022)

English version
Home page
Updated on July 16, 2022

---------------------------------------------------------------------

・ プロフィール

・ 写真集

・ 軌道要素

Epoch 2022 Aug. 9.0 TT = JDT 2459800.5
T 2022 Mar. 4.97920 TT                                  Rudenko
q   1.5443422            (2000.0)            P               Q
n   0.17657359     Peri.  179.37174     -0.37311197     +0.91220638
a   3.1466774      Node    68.71008     -0.85201791     -0.26465636
e   0.5092150      Incl.   10.46963     -0.36722329     -0.31278833
P   5.58
From 1855 observations 2015 Nov. 11-2022 June 6, mean residual 0".5.
     Nongravitational parameters A1 = -0.11, A2 = -0.0257.

・ 星図

・ 光度変化

        m1 = 14.0 + 5 logΔ +  7.5 log r          [    ,-635]  (              〜2020年 6月 7日)
        m1 =  7.5 + 5 logΔ + 18.0 log r(t + 15)  [-635, 310]  (2020年 6月 7日〜2023年 1月 8日)
        m1 = 11.5 + 5 logΔ + 10.0 log r          [ 310,    ]  (2023年 1月 8日〜              )

---------------------------------------------------------------------

軌道要素はM.P.E.C. 2022-L66に掲載されたものです。
星図はステラナビゲータ Ver.10 (アストロアーツ) で作成したものです。
光度グラフはComet for Windowsで作成したものです。

---------------------------------------------------------------------

Copyright(C) Seiichi Yoshida (comet@aerith.net). All rights reserved.